Location: Unspecified
(44.4377°N, 88.0525°W)
Time: 14:18:59
(UTC-05:00)

CZ-3 Stage 3 - Visible Passes

Search period start: 31 October 2014 00:00
Search period end: 09 November 2014 23:00
Orbit: 417 x 34819 km, 30.9° (Epoch: 29 October)

Date Brightness Start Highest point End Pass type
(mag) Time Alt. Az. Time Alt. Az. Time Alt. Az.
31 Oct 7.7 00:00:00 33° S 03:45:57 57° SSE 04:12:57 10° E visible
31 Oct 8.3 20:25:29 10° ESE 23:30:36 30° ESE 00:27:47 10° E visible
01 Nov 6.0 23:52:42 10° SSW 06:35:34 49° SSW 06:43:52 10° SE visible
02 Nov 7.6 19:25:45 10° SSE 02:42:44 58° SSE 03:09:08 10° E visible
03 Nov 8.3 19:09:12 10° ESE 22:26:25 32° ESE 23:24:43 10° E visible
04 Nov 6.0 22:47:06 10° SSW 06:31:35 48° SSW 06:39:49 10° SE visible
05 Nov 7.6 19:14:20 10° SSE 02:39:21 59° S 03:05:11 10° E visible
06 Nov 8.3 18:53:05 10° ESE 22:22:05 33° ESE 23:21:25 10° E visible
07 Nov 5.9 22:41:30 10° SSW 06:27:27 47° SSW 06:35:38 10° SE visible
08 Nov 7.5 19:03:18 10° SSE 02:35:49 60° S 03:01:07 10° E visible
09 Nov 8.5 18:37:07 10° ESE 22:17:36 35° ESE 21:07:45 30° SE visible
